Location: Unspecified
(48.2082°N, 0.0000°E)
Time: 19:25:10
(UTC+00:00)

Vanguard 2 Rocket - Visible Passes

Search period start: 24 June 2019 00:00
Search period end: 04 July 2019 00:00
Orbit: 555 x 3326 km, 32.9° (Epoch: 24 June)

Date Brightness Start Highest point End Pass type
(mag) Time Alt. Az. Time Alt. Az. Time Alt. Az.
24 Jun 9.7 02:08:40 10° WSW 02:20:17 31° SSW 02:35:43 10° SSE visible
24 Jun 8.8 20:46:03 10° SSW 20:52:00 24° SSE 21:00:51 10° ESE visible
24 Jun 8.8 22:56:22 10° WSW 23:04:58 38° S 23:18:47 10° ESE visible
25 Jun 9.4 01:08:50 10° WSW 01:19:32 34° SSW 01:34:54 10° SE visible
25 Jun 8.7 21:57:46 10° SW 22:05:04 34° SSE 22:16:46 10° ESE visible
26 Jun 9.1 00:09:27 10° WSW 00:18:59 36° S 00:33:34 10° SE visible
26 Jun 9.8 02:23:37 10° WSW 02:33:49 24° SSW 02:46:56 10° SSE visible
26 Jun 8.6 20:59:31 10° SW 21:05:32 27° SSE 21:14:46 10° ESE visible
26 Jun 8.9 23:10:26 10° WSW 23:18:44 35° S 23:31:56 10° SE visible
27 Jun 9.5 01:23:27 10° WSW 01:33:12 27° SSW 01:46:46 10° SSE visible
27 Jun 8.7 22:11:43 10° SW 22:18:49 33° S 22:30:10 10° ESE visible
28 Jun 9.2 00:23:52 10° WSW 00:32:46 30° SSW 00:45:56 10° SE visible
28 Jun 10.0 02:39:38 10° WSW 02:47:23 16° SSW 02:56:43 10° S visible
28 Jun 8.5 21:13:17 10° SW 21:19:13 29° SSE 21:28:26 10° ESE visible
28 Jun 9.0 23:24:43 10° WSW 23:32:34 31° S 23:44:42 10° SE visible
29 Jun 9.7 01:38:41 10° WSW 01:46:55 20° SSW 01:57:40 10° SSE visible
29 Jun 8.7 22:25:52 10° WSW 22:32:39 30° S 22:42:48 11° SE visible
30 Jun 9.4 00:38:42 10° WSW 00:46:35 23° SSW 00:57:36 10° SSE visible
30 Jun 8.5 21:27:18 10° SW 21:33:02 28° S 21:41:51 10° ESE visible
30 Jun 9.1 23:39:17 10° WSW 23:46:27 25° SSW 23:48:05 24° S visible
01 Jul10.002:08:52S02:08:52S01:53:41WSWvisible
01 Jul 8.8 22:40:16 10° WSW 22:46:33 26° S 22:50:03 22° SSE visible
02 Jul 9.7 00:54:25 10° WSW 00:55:43 12° SW 00:55:43 12° SW visible
02 Jul 8.6 21:41:32 10° SW 21:46:56 25° S 21:52:31 15° SE visible
02 Jul 9.4 23:54:25 10° WSW 23:58:13 17° SSW 23:58:13 17° SSW visible
03 Jul 8.4 20:43:04 10° SW 20:47:33 22° S 20:53:59 10° SE visible
03 Jul 9.1 22:55:04 10° SW 23:00:31 20° SSW 23:01:00 20° S visible
